When you browse on this site, cookies collect data to enhance your experience and personalize the content and advertising you see.
Visit our Privacy Policy to learn more. By continuing to use the site, you agree to this use of cookies and data.
  • Em Portugal
  • Lista de países
  • Para 7 dias
  • Temperatura da água
  • Mapas de satélite
  • Mapa do tempo
  • Widgets de tempo
  • user-avatar
    Iniciar Sessão

    Previsão horária em Makeevka

    Hoje, 19 Fevereiro, Terça-feira

    Tempo Temperatura Precipitação Vento Pressão Humidade
    00:00 -5°C° 0 mm 4 m/s 749 mmHg 78%
    01:00 -6°C° 0 mm 3 m/s 749 mmHg 79%
    02:00 -6°C° 0 mm 3 m/s 750 mmHg 81%
    03:00 -6°C° 0 mm 3 m/s 750 mmHg 82%
    04:00 -5°C° 0 mm 2 m/s 750 mmHg 83%
    05:00 -6°C° 0 mm 2 m/s 750 mmHg 83%
    06:00 -6°C° 0 mm 2 m/s 751 mmHg 84%
    07:00 -6°C° 0 mm 2 m/s 751 mmHg 83%
    08:00 -5°C° 0 mm 2 m/s 751 mmHg 82%
    09:00 -5°C° 0 mm 2 m/s 752 mmHg 81%
    10:00 -4°C° 0 mm 2 m/s 752 mmHg 76%
    11:00 -1°C° 0 mm 1 m/s 753 mmHg 72%
    12:00 -1°C° 0 mm 1 m/s 753 mmHg 68%
    13:00 0°C° 0 mm 1 m/s 753 mmHg 66%
    14:00 0°C° 0 mm 1 m/s 753 mmHg 64%
    15:00 0°C° 0 mm 0 m/s 753 mmHg 62%
    16:00 -1°C° 0 mm 0 m/s 752 mmHg 65%
    17:00 -1°C° 0 mm 1 m/s 752 mmHg 69%
    18:00 -2°C° 0 mm 1 m/s 752 mmHg 72%
    19:00 -2°C° 0 mm 1 m/s 752 mmHg 73%
    20:00 -4°C° 0 mm 2 m/s 752 mmHg 75%
    21:00 -4°C° 0 mm 2 m/s 752 mmHg 76%
    22:00 -4°C° 0 mm 2 m/s 752 mmHg 76%
    23:00 -4°C° 0 mm 2 m/s 751 mmHg 76%

    Amanhã, 20 Fevereiro, Quarta-feira

    Tempo Temperatura Precipitação Vento Pressão Humidade
    00:00 -5°C° 0 mm 3 m/s 751 mmHg 76%
    01:00 -5°C° 0 mm 3 m/s 751 mmHg 74%
    02:00 -5°C° 0 mm 3 m/s 751 mmHg 73%
    03:00 -5°C° 0 mm 3 m/s 750 mmHg 72%
    04:00 -6°C° 0 mm 3 m/s 750 mmHg 72%
    05:00 -6°C° 0 mm 3 m/s 749 mmHg 72%
    06:00 -6°C° 0 mm 3 m/s 749 mmHg 73%
    07:00 -5°C° 0 mm 3 m/s 749 mmHg 73%
    08:00 -5°C° 0 mm 3 m/s 748 mmHg 72%
    09:00 -4°C° 0 mm 3 m/s 748 mmHg 72%
    10:00 -3°C° 0 mm 4 m/s 748 mmHg 69%
    11:00 -2°C° 0 mm 4 m/s 747 mmHg 65%
    12:00 0°C° 0 mm 4 m/s 747 mmHg 62%
    13:00 0°C° 0 mm 4 m/s 747 mmHg 61%
    14:00 +1°C° 0 mm 4 m/s 746 mmHg 61%
    15:00 +1°C° 0 mm 4 m/s 746 mmHg 60%
    16:00 0°C° 0 mm 4 m/s 746 mmHg 63%
    17:00 0°C° 0 mm 4 m/s 745 mmHg 66%
    18:00 -1°C° 0 mm 4 m/s 745 mmHg 69%
    19:00 -2°C° 0 mm 4 m/s 745 mmHg 71%
    20:00 -2°C° 0 mm 4 m/s 745 mmHg 73%
    21:00 -2°C° 0 mm 4 m/s 744 mmHg 75%
    22:00 -2°C° 0 mm 4 m/s 744 mmHg 77%
    23:00 -1°C° 0 mm 4 m/s 744 mmHg 78%

    Depois de amanhã, 21 Fevereiro, Quinta-feira

    Tempo Temperatura Precipitação Vento Pressão Humidade
    00:00 -1°C° 0 mm 4 m/s 744 mmHg 80%
    01:00 -1°C° 0 mm 4 m/s 743 mmHg 82%
    02:00 -1°C° 0 mm 4 m/s 743 mmHg 85%
    03:00 -1°C° 0 mm 4 m/s 743 mmHg 87%
    04:00 0°C° 0.1 mm 4 m/s 742 mmHg 90%
    05:00 0°C° 0.1 mm 4 m/s 742 mmHg 93%
    06:00 0°C° 0.1 mm 4 m/s 742 mmHg 96%
    07:00 0°C° 0 mm 4 m/s 742 mmHg 95%
    08:00 0°C° 0 mm 4 m/s 742 mmHg 95%
    09:00 0°C° 0 mm 4 m/s 742 mmHg 95%
    10:00 +1°C° 0 mm 5 m/s 742 mmHg 87%
    11:00 +2°C° 0 mm 6 m/s 741 mmHg 79%
    12:00 +2°C° 0 mm 6 m/s 741 mmHg 72%
    13:00 +2°C° 0.1 mm 6 m/s 741 mmHg 72%
    14:00 0°C° 0.1 mm 7 m/s 741 mmHg 72%
    15:00 0°C° 0.1 mm 7 m/s 741 mmHg 73%
    16:00 -1°C° 0.1 mm 6 m/s 741 mmHg 70%
    17:00 -2°C° 0.1 mm 6 m/s 742 mmHg 67%
    18:00 -3°C° 0.1 mm 6 m/s 742 mmHg 65%
    19:00 -3°C° 0 mm 6 m/s 742 mmHg 66%
    20:00 -4°C° 0 mm 5 m/s 742 mmHg 68%
    21:00 -4°C° 0 mm 5 m/s 743 mmHg 69%
    22:00 -4°C° 0.1 mm 5 m/s 743 mmHg 69%
    23:00 -4°C° 0.1 mm 5 m/s 743 mmHg 69%

    22 Fevereiro, Sexta-feira

    Tempo Temperatura Precipitação Vento Pressão Humidade
    00:00 -5°C° 0.1 mm 5 m/s 743 mmHg 69%
    01:00 -5°C° 0 mm 5 m/s 743 mmHg 69%
    02:00 -5°C° 0 mm 5 m/s 743 mmHg 69%
    03:00 -5°C° 0 mm 5 m/s 743 mmHg 68%
    04:00 -5°C° 0 mm 5 m/s 743 mmHg 67%
    05:00 -5°C° 0 mm 5 m/s 743 mmHg 66%
    06:00 -5°C° 0 mm 5 m/s 743 mmHg 65%
    07:00 -4°C° 0 mm 4 m/s 743 mmHg 65%
    08:00 -4°C° 0 mm 4 m/s 743 mmHg 64%
    09:00 -4°C° 0 mm 4 m/s 744 mmHg 63%
    10:00 -4°C° 0 mm 4 m/s 744 mmHg 62%
    11:00 -4°C° 0 mm 4 m/s 744 mmHg 61%
    12:00 -4°C° 0 mm 4 m/s 744 mmHg 59%
    13:00 -3°C° 0 mm 4 m/s 744 mmHg 60%
    14:00 -3°C° 0 mm 4 m/s 743 mmHg 61%
    15:00 -2°C° 0 mm 3 m/s 743 mmHg 62%
    16:00 -2°C° 0 mm 3 m/s 744 mmHg 65%
    17:00 -4°C° 0 mm 3 m/s 744 mmHg 68%
    18:00 -4°C° 0 mm 3 m/s 744 mmHg 71%
    19:00 -5°C° 0.1 mm 4 m/s 745 mmHg 73%
    20:00 -7°C° 0.1 mm 5 m/s 745 mmHg 74%
    21:00 -9°C° 0.1 mm 7 m/s 746 mmHg 76%
    22:00 -10°C° 0.1 mm 6 m/s 746 mmHg 74%
    23:00 -11°C° 0.1 mm 6 m/s 747 mmHg 72%

    23 Fevereiro, Sábado

    Tempo Temperatura Precipitação Vento Pressão Humidade
    00:00 -12°C° 0.1 mm 6 m/s 747 mmHg 70%
    01:00 -12°C° 0 mm 6 m/s 747 mmHg 69%
    02:00 -12°C° 0 mm 6 m/s 748 mmHg 68%
    03:00 -14°C° 0 mm 6 m/s 748 mmHg 67%
    04:00 -14°C° 0 mm 6 m/s 748 mmHg 68%
    05:00 -14°C° 0 mm 6 m/s 748 mmHg 69%
    06:00 -14°C° 0 mm 6 m/s 749 mmHg 69%
    07:00 -14°C° 0 mm 6 m/s 749 mmHg 69%
    08:00 -14°C° 0 mm 6 m/s 749 mmHg 69%
    09:00 -14°C° 0 mm 6 m/s 750 mmHg 70%
    10:00 -13°C° 0 mm 5 m/s 750 mmHg 68%
    11:00 -12°C° 0 mm 5 m/s 750 mmHg 66%
    12:00 -12°C° 0 mm 5 m/s 750 mmHg 65%
    13:00 -11°C° 0 mm 5 m/s 750 mmHg 63%
    14:00 -11°C° 0 mm 5 m/s 750 mmHg 62%
    15:00 -11°C° 0 mm 5 m/s 750 mmHg 61%
    16:00 -11°C° 0 mm 5 m/s 751 mmHg 63%
    17:00 -11°C° 0 mm 5 m/s 751 mmHg 65%
    18:00 -12°C° 0 mm 5 m/s 751 mmHg 67%
    19:00 -12°C° 0 mm 5 m/s 751 mmHg 69%
    20:00 -13°C° 0 mm 5 m/s 752 mmHg 70%
    21:00 -13°C° 0 mm 5 m/s 752 mmHg 71%
    22:00 -12°C° 0 mm 4 m/s 752 mmHg 72%
    23:00 -12°C° 0 mm 4 m/s 752 mmHg 72%

    24 Fevereiro, Domingo

    Tempo Temperatura Precipitação Vento Pressão Humidade
    00:00 -14°C° 0 mm 4 m/s 752 mmHg 73%
    01:00 -14°C° 0 mm 4 m/s 752 mmHg 74%
    02:00 -14°C° 0 mm 4 m/s 752 mmHg 75%
    03:00 -14°C° 0 mm 4 m/s 752 mmHg 77%
    04:00 -14°C° 0 mm 4 m/s 752 mmHg 77%
    05:00 -14°C° 0 mm 4 m/s 752 mmHg 77%
    06:00 -14°C° 0 mm 4 m/s 752 mmHg 77%
    07:00 -14°C° 0 mm 4 m/s 752 mmHg 76%
    08:00 -14°C° 0 mm 5 m/s 753 mmHg 75%
    09:00 -14°C° 0 mm 5 m/s 753 mmHg 74%
    10:00 -13°C° 0 mm 5 m/s 753 mmHg 72%
    11:00 -12°C° 0 mm 5 m/s 753 mmHg 69%
    12:00 -12°C° 0 mm 5 m/s 753 mmHg 67%
    13:00 -11°C° 0 mm 5 m/s 753 mmHg 67%
    14:00 -11°C° 0 mm 5 m/s 753 mmHg 67%
    15:00 -10°C° 0 mm 5 m/s 752 mmHg 67%
    16:00 -9°C° 0 mm 4 m/s 752 mmHg 70%
    17:00 -10°C° 0 mm 4 m/s 752 mmHg 72%
    18:00 -10°C° 0 mm 4 m/s 752 mmHg 74%
    19:00 -10°C° 0 mm 4 m/s 752 mmHg 76%
    20:00 -10°C° 0 mm 4 m/s 752 mmHg 78%
    21:00 -10°C° 0 mm 4 m/s 752 mmHg 80%
    22:00 -10°C° 0 mm 4 m/s 752 mmHg 80%
    23:00 -9°C° 0 mm 3 m/s 752 mmHg 81%
    Mostrar mais